Year,Month,Day,Hour,Minute,Value (Times are PST for temperature in C)
2008,10,26,00,00,1.80
2008,10,26,00,01,1.80
2008,10,26,00,02,1.80
2008,10,26,00,03,1.80
2008,10,26,00,04,1.80
2008,10,26,00,05,1.80
2008,10,26,00,06,1.80
2008,10,26,00,07,1.80
2008,10,26,00,08,1.80
2008,10,26,00,09,1.80
2008,10,26,00,10,1.80
2008,10,26,00,11,1.80
2008,10,26,00,12,1.80
2008,10,26,00,13,1.80
2008,10,26,00,14,1.80
2008,10,26,00,15,1.80
2008,10,26,00,16,1.80
2008,10,26,00,17,1.80
2008,10,26,00,18,1.80
2008,10,26,00,19,1.70
2008,10,26,00,20,1.70
2008,10,26,00,21,1.70
2008,10,26,00,22,1.70
2008,10,26,00,23,1.70
2008,10,26,00,24,1.70
2008,10,26,00,25,1.70
2008,10,26,00,26,1.70
2008,10,26,00,27,1.70
2008,10,26,00,28,1.70
2008,10,26,00,29,1.70
2008,10,26,00,30,1.70
2008,10,26,00,31,1.70
2008,10,26,00,32,1.70
2008,10,26,00,33,1.70
2008,10,26,00,34,1.70
2008,10,26,00,35,1.70
2008,10,26,00,36,1.70
2008,10,26,00,37,1.70
2008,10,26,00,38,1.70
2008,10,26,00,39,1.60
2008,10,26,00,40,1.60
2008,10,26,00,41,1.60
2008,10,26,00,42,1.60
2008,10,26,00,43,1.60
2008,10,26,00,44,1.50
2008,10,26,00,45,1.60
2008,10,26,00,46,1.50
2008,10,26,00,47,1.50
2008,10,26,00,48,1.50
2008,10,26,00,49,1.60
2008,10,26,00,50,1.60
2008,10,26,00,51,1.60
2008,10,26,00,52,1.60
2008,10,26,00,53,1.60
2008,10,26,00,54,1.60
2008,10,26,00,55,1.70
2008,10,26,00,56,1.70
2008,10,26,00,57,1.70
2008,10,26,00,58,1.70
2008,10,26,00,59,1.70
2008,10,26,02,00,1.70
2008,10,26,02,01,1.70
2008,10,26,02,02,1.70
2008,10,26,02,03,1.70
2008,10,26,02,04,1.70
2008,10,26,02,05,1.70
2008,10,26,02,06,1.70
2008,10,26,02,07,1.70
2008,10,26,02,08,1.70
2008,10,26,02,09,1.70
2008,10,26,02,10,1.70
2008,10,26,02,11,1.70
2008,10,26,02,12,1.70
2008,10,26,02,13,1.70
2008,10,26,02,14,1.70
2008,10,26,02,15,1.70
2008,10,26,02,16,1.70
2008,10,26,02,17,1.70
2008,10,26,02,18,1.70
2008,10,26,02,19,1.70
2008,10,26,02,20,1.70
2008,10,26,02,21,1.70
2008,10,26,02,22,1.70
2008,10,26,02,23,1.70
2008,10,26,02,24,1.70
2008,10,26,02,25,1.70
2008,10,26,02,26,1.70
2008,10,26,02,27,1.70
2008,10,26,02,28,1.70
2008,10,26,02,29,1.70
2008,10,26,02,30,1.70
2008,10,26,02,31,1.70
2008,10,26,02,32,1.70
2008,10,26,02,33,1.70
2008,10,26,02,34,1.70
2008,10,26,02,35,1.70
2008,10,26,02,36,1.70
2008,10,26,02,37,1.70
2008,10,26,02,38,1.80
2008,10,26,02,39,1.80
2008,10,26,02,40,1.80
2008,10,26,02,41,1.80
2008,10,26,02,42,1.80
2008,10,26,02,43,1.80
2008,10,26,02,44,1.80
2008,10,26,02,45,1.70
2008,10,26,02,46,1.70
2008,10,26,02,47,1.80
2008,10,26,02,48,1.80
2008,10,26,02,49,1.80
2008,10,26,02,50,1.70
2008,10,26,02,51,1.70
2008,10,26,02,52,1.70
2008,10,26,02,53,1.70
2008,10,26,02,54,1.70
2008,10,26,02,55,1.70
2008,10,26,02,56,1.70
2008,10,26,02,57,1.70
2008,10,26,02,58,1.70
2008,10,26,02,59,1.70
2008,10,26,03,02,1.30
2008,10,26,03,03,1.30
2008,10,26,03,04,1.30
2008,10,26,03,05,1.30
2008,10,26,03,06,1.30
2008,10,26,03,07,1.30
2008,10,26,03,08,1.30
2008,10,26,03,09,1.30
2008,10,26,03,10,1.30
2008,10,26,03,11,1.30
2008,10,26,03,12,1.30
2008,10,26,03,13,1.20
2008,10,26,03,14,1.20
2008,10,26,03,15,1.20
2008,10,26,03,16,1.30
2008,10,26,03,17,1.30
2008,10,26,03,18,1.30
2008,10,26,03,19,1.20
2008,10,26,03,20,1.20
2008,10,26,03,21,1.20
2008,10,26,03,22,1.20
2008,10,26,03,23,1.20
2008,10,26,03,24,1.20
2008,10,26,03,25,1.20
2008,10,26,03,26,1.20
2008,10,26,03,27,1.20
2008,10,26,03,28,1.20
2008,10,26,03,29,1.20
2008,10,26,03,30,1.20
2008,10,26,03,31,1.20
2008,10,26,03,32,1.20
2008,10,26,03,33,1.30
2008,10,26,03,34,1.30
2008,10,26,03,35,1.30
2008,10,26,03,36,1.30
2008,10,26,03,37,1.30
2008,10,26,03,38,1.30
2008,10,26,03,39,1.30
2008,10,26,03,40,1.30
2008,10,26,03,41,1.30
2008,10,26,03,42,1.30
2008,10,26,03,43,1.30
2008,10,26,03,44,1.30
2008,10,26,03,45,1.20
2008,10,26,03,46,1.20
2008,10,26,03,47,1.20
2008,10,26,03,48,1.20
2008,10,26,03,49,1.20
2008,10,26,03,50,1.20
2008,10,26,03,51,1.20
2008,10,26,03,52,1.20
2008,10,26,03,53,1.20
2008,10,26,03,54,1.10
2008,10,26,03,55,1.10
2008,10,26,03,56,1.10
2008,10,26,03,57,1.00
2008,10,26,03,58,1.00
2008,10,26,03,59,1.00
2008,10,26,04,00,1.00
2008,10,26,04,01,1.10
2008,10,26,04,02,1.10
2008,10,26,04,03,1.10
2008,10,26,04,04,1.10
2008,10,26,04,05,1.10
2008,10,26,04,06,1.10
2008,10,26,04,07,1.20
2008,10,26,04,08,1.20
2008,10,26,04,09,1.20
2008,10,26,04,10,1.20
2008,10,26,04,11,1.20
2008,10,26,04,12,1.20
2008,10,26,04,13,1.20
2008,10,26,04,14,1.20
2008,10,26,04,15,1.20
2008,10,26,04,16,1.20
2008,10,26,04,17,1.10
2008,10,26,04,18,1.10
2008,10,26,04,19,1.10
2008,10,26,04,20,1.10
2008,10,26,04,21,1.10
2008,10,26,04,22,1.10
2008,10,26,04,23,1.00
2008,10,26,04,24,1.00
2008,10,26,04,25,1.00
2008,10,26,04,26,1.00
2008,10,26,04,27,0.90
2008,10,26,04,28,0.90
2008,10,26,04,29,0.90
2008,10,26,04,30,0.90
2008,10,26,04,31,0.90
2008,10,26,04,32,0.90
2008,10,26,04,33,0.80
2008,10,26,04,34,0.80
2008,10,26,04,35,0.80
2008,10,26,04,36,0.80
2008,10,26,04,37,0.80
2008,10,26,04,38,0.80
2008,10,26,04,39,0.80
2008,10,26,04,40,0.80
2008,10,26,04,41,0.80
2008,10,26,04,42,0.80
2008,10,26,04,43,0.80
2008,10,26,04,44,0.80
2008,10,26,04,45,0.80
2008,10,26,04,46,0.70
2008,10,26,04,47,0.70
2008,10,26,04,48,0.70
2008,10,26,04,49,0.70
2008,10,26,04,50,0.70
2008,10,26,04,51,0.70
2008,10,26,04,52,0.70
2008,10,26,04,53,0.80
2008,10,26,04,54,0.80
2008,10,26,04,55,0.80
2008,10,26,04,56,0.80
2008,10,26,04,57,0.80
2008,10,26,04,58,0.70
2008,10,26,04,59,0.70
2008,10,26,05,00,0.70
2008,10,26,05,01,0.70
2008,10,26,05,02,0.70
2008,10,26,05,03,0.70
2008,10,26,05,04,0.70
2008,10,26,05,05,0.70
2008,10,26,05,06,0.70
2008,10,26,05,07,0.70
2008,10,26,05,08,0.70
2008,10,26,05,09,0.70
2008,10,26,05,10,0.70
2008,10,26,05,11,0.70
2008,10,26,05,12,0.70
2008,10,26,05,13,0.70
2008,10,26,05,14,0.70
2008,10,26,05,15,0.70
2008,10,26,05,16,0.70
2008,10,26,05,17,0.70
2008,10,26,05,18,0.80
2008,10,26,05,19,0.80
2008,10,26,05,20,0.80
2008,10,26,05,21,0.80
2008,10,26,05,22,0.80
2008,10,26,05,23,0.80
2008,10,26,05,24,0.80
2008,10,26,05,25,0.80
2008,10,26,05,26,0.80
2008,10,26,05,27,0.80
2008,10,26,05,28,0.80
2008,10,26,05,29,0.80
2008,10,26,05,30,0.80
2008,10,26,05,31,0.80
2008,10,26,05,32,0.80
2008,10,26,05,33,0.80
2008,10,26,05,34,0.80
2008,10,26,05,35,0.80
2008,10,26,05,36,0.70
2008,10,26,05,37,0.70
2008,10,26,05,38,0.70
2008,10,26,05,39,0.70
2008,10,26,05,40,0.70
2008,10,26,05,41,0.70
2008,10,26,05,42,0.70
2008,10,26,05,43,0.70
2008,10,26,05,44,0.70
2008,10,26,05,45,0.70
2008,10,26,05,46,0.70
2008,10,26,05,47,0.70
2008,10,26,05,48,0.70
2008,10,26,05,49,0.70
2008,10,26,05,50,0.70
2008,10,26,05,51,0.70
2008,10,26,05,52,0.70
2008,10,26,05,53,0.70
2008,10,26,05,54,0.70
2008,10,26,05,55,0.70
2008,10,26,05,56,0.70
2008,10,26,05,57,0.70
2008,10,26,05,58,0.70
2008,10,26,05,59,0.70
2008,10,26,06,00,0.70
2008,10,26,06,01,0.70
2008,10,26,06,02,0.70
2008,10,26,06,03,0.80
2008,10,26,06,04,0.80
2008,10,26,06,05,0.80
2008,10,26,06,06,0.80
2008,10,26,06,07,0.90
2008,10,26,06,08,0.90
2008,10,26,06,09,0.90
2008,10,26,06,10,1.00
2008,10,26,06,11,1.00
2008,10,26,06,12,1.10
2008,10,26,06,13,1.10
2008,10,26,06,14,1.10
2008,10,26,06,15,1.10
2008,10,26,06,16,1.20
2008,10,26,06,17,1.20
2008,10,26,06,18,1.20
2008,10,26,06,19,1.20
2008,10,26,06,20,1.30
2008,10,26,06,21,1.30
2008,10,26,06,22,1.20
2008,10,26,06,23,1.20
2008,10,26,06,24,1.20
2008,10,26,06,25,1.20
2008,10,26,06,26,1.20
2008,10,26,06,27,1.20
2008,10,26,06,28,1.20
2008,10,26,06,29,1.30
2008,10,26,06,30,1.30
2008,10,26,06,31,1.30
2008,10,26,06,32,1.30
2008,10,26,06,33,1.30
2008,10,26,06,34,1.30
2008,10,26,06,35,1.20
2008,10,26,06,36,1.20
2008,10,26,06,37,1.20
2008,10,26,06,38,1.20
2008,10,26,06,39,1.20
2008,10,26,06,40,1.20
2008,10,26,06,41,1.20
2008,10,26,06,42,1.20
2008,10,26,06,43,1.10
2008,10,26,06,44,1.10
2008,10,26,06,45,1.10
2008,10,26,06,46,1.10
2008,10,26,06,47,1.10
2008,10,26,06,48,1.10
2008,10,26,06,49,1.10
2008,10,26,06,50,1.10
2008,10,26,06,51,1.10
2008,10,26,06,52,1.10
2008,10,26,06,53,1.10
2008,10,26,06,54,1.10
2008,10,26,06,55,1.10
2008,10,26,06,56,1.10
2008,10,26,06,57,1.10
2008,10,26,06,58,1.10
2008,10,26,06,59,1.10
2008,10,26,07,00,1.00
2008,10,26,07,01,1.00
2008,10,26,07,02,1.00
2008,10,26,07,03,0.90
2008,10,26,07,04,0.90
2008,10,26,07,05,0.90
2008,10,26,07,06,0.90
2008,10,26,07,07,0.90
2008,10,26,07,08,0.90
2008,10,26,07,09,0.90
2008,10,26,07,10,0.90
2008,10,26,07,11,0.90
2008,10,26,07,12,0.90
2008,10,26,07,13,0.80
2008,10,26,07,14,0.80
2008,10,26,07,15,0.80
2008,10,26,07,16,0.80
2008,10,26,07,17,0.80
2008,10,26,07,18,0.80
2008,10,26,07,19,0.80
2008,10,26,07,20,0.90
2008,10,26,07,21,0.90
2008,10,26,07,22,0.90
2008,10,26,07,23,0.90
2008,10,26,07,24,0.90
2008,10,26,07,25,0.90
2008,10,26,07,26,0.90
2008,10,26,07,27,1.00
2008,10,26,07,28,1.00
2008,10,26,07,29,1.10
2008,10,26,07,30,1.10
2008,10,26,07,31,1.10
2008,10,26,07,32,1.10
2008,10,26,07,33,1.10
2008,10,26,07,34,1.10
2008,10,26,07,35,1.10
2008,10,26,07,36,1.10
2008,10,26,07,37,1.10
2008,10,26,07,38,1.10
2008,10,26,07,39,1.10
2008,10,26,07,40,1.10
2008,10,26,07,41,1.10
2008,10,26,07,42,1.10
2008,10,26,07,43,1.00
2008,10,26,07,44,1.00
2008,10,26,07,45,1.00
2008,10,26,07,46,1.00
2008,10,26,07,47,1.00
2008,10,26,07,48,1.00
2008,10,26,07,49,1.00
2008,10,26,07,50,0.90
2008,10,26,07,51,0.90
2008,10,26,07,52,0.90
2008,10,26,07,53,0.90
2008,10,26,07,54,0.90
2008,10,26,07,55,0.90
2008,10,26,07,56,0.90
2008,10,26,07,57,0.90
2008,10,26,07,58,0.90
2008,10,26,07,59,0.90
2008,10,26,08,00,0.80
2008,10,26,08,01,0.90
2008,10,26,08,02,0.90
2008,10,26,08,03,0.90
2008,10,26,08,04,1.00
2008,10,26,08,05,1.00
2008,10,26,08,06,1.00
2008,10,26,08,07,1.00
2008,10,26,08,08,1.10
2008,10,26,08,09,1.10
2008,10,26,08,10,1.10
2008,10,26,08,11,1.10
2008,10,26,08,12,1.10
2008,10,26,08,13,1.10
2008,10,26,08,14,1.10
2008,10,26,08,15,1.10
2008,10,26,08,16,1.10
2008,10,26,08,17,1.10
2008,10,26,08,18,1.10
2008,10,26,08,19,1.10
2008,10,26,08,20,1.10
2008,10,26,08,21,1.10
2008,10,26,08,22,1.10
2008,10,26,08,23,1.10
2008,10,26,08,24,1.10
2008,10,26,08,25,1.10
2008,10,26,08,26,1.10
2008,10,26,08,27,1.10
2008,10,26,08,28,1.10
2008,10,26,08,29,1.20
2008,10,26,08,30,1.20
2008,10,26,08,31,1.20
2008,10,26,08,32,1.20
2008,10,26,08,33,1.10
2008,10,26,08,34,1.10
2008,10,26,08,35,1.10
2008,10,26,08,36,1.10
2008,10,26,08,37,1.10
2008,10,26,08,38,1.10
2008,10,26,08,39,1.10
2008,10,26,08,40,1.10
2008,10,26,08,41,1.20
2008,10,26,08,42,1.20
2008,10,26,08,43,1.20
2008,10,26,08,44,1.20
2008,10,26,08,45,1.20
2008,10,26,08,46,1.30
2008,10,26,08,47,1.30
2008,10,26,08,48,1.30
2008,10,26,08,49,1.30
2008,10,26,08,50,1.30
2008,10,26,08,51,1.30
2008,10,26,08,52,1.30
2008,10,26,08,53,1.30
2008,10,26,08,54,1.30
2008,10,26,08,55,1.30
2008,10,26,08,56,1.40
2008,10,26,08,57,1.40
2008,10,26,08,58,1.50
2008,10,26,08,59,1.60
2008,10,26,09,00,1.60
2008,10,26,09,01,1.70
2008,10,26,09,02,1.70
2008,10,26,09,03,1.70
2008,10,26,09,04,1.80
2008,10,26,09,05,1.80
2008,10,26,09,06,1.80
2008,10,26,09,07,1.90
2008,10,26,09,08,1.90
2008,10,26,09,09,2.00
2008,10,26,09,10,2.00
2008,10,26,09,11,2.00
2008,10,26,09,12,2.10
2008,10,26,09,13,2.10
2008,10,26,09,14,2.10
2008,10,26,09,15,2.20
2008,10,26,09,16,2.20
2008,10,26,09,17,2.20
2008,10,26,09,18,2.20
2008,10,26,09,19,2.20
2008,10,26,09,20,2.30
2008,10,26,09,21,2.30
2008,10,26,09,22,2.30
2008,10,26,09,23,2.30
2008,10,26,09,24,2.30
2008,10,26,09,25,2.30
2008,10,26,09,26,2.30
2008,10,26,09,27,2.30
2008,10,26,09,28,2.30
2008,10,26,09,29,2.30
2008,10,26,09,30,2.30
2008,10,26,09,31,2.30
2008,10,26,09,32,2.30
2008,10,26,09,33,2.40
2008,10,26,09,34,2.40
2008,10,26,09,35,2.40
2008,10,26,09,36,2.40
2008,10,26,09,37,2.50
2008,10,26,09,38,2.50
2008,10,26,09,39,2.50
2008,10,26,09,40,2.60
2008,10,26,09,41,2.60
2008,10,26,09,42,2.60
2008,10,26,09,43,2.70
2008,10,26,09,44,2.70
2008,10,26,09,45,2.70
2008,10,26,09,46,2.80
2008,10,26,09,47,2.80
2008,10,26,09,48,2.90
2008,10,26,09,49,2.90
2008,10,26,09,50,2.90
2008,10,26,09,51,2.90
2008,10,26,09,52,2.90
2008,10,26,09,53,2.90
2008,10,26,09,54,2.90
2008,10,26,09,55,2.90
2008,10,26,09,56,3.00
2008,10,26,09,57,3.00
2008,10,26,09,58,3.10
2008,10,26,09,59,3.10
2008,10,26,10,00,3.10
2008,10,26,10,01,3.10
2008,10,26,10,02,3.20
2008,10,26,10,03,3.20
2008,10,26,10,04,3.20
2008,10,26,10,05,3.30
2008,10,26,10,06,3.30
2008,10,26,10,07,3.30
2008,10,26,10,08,3.40
2008,10,26,10,09,3.40
2008,10,26,10,10,3.40
2008,10,26,10,11,3.50
2008,10,26,10,12,3.60
2008,10,26,10,13,3.60
2008,10,26,10,14,3.70
2008,10,26,10,15,3.70
2008,10,26,10,16,3.80
2008,10,26,10,17,3.80
2008,10,26,10,18,3.90
2008,10,26,10,19,4.00
2008,10,26,10,20,4.10
2008,10,26,10,21,4.10
2008,10,26,10,22,4.20
2008,10,26,10,23,4.20
2008,10,26,10,24,4.30
2008,10,26,10,25,4.30
2008,10,26,10,26,4.40
2008,10,26,10,27,4.40
2008,10,26,10,28,4.40
2008,10,26,10,29,4.50
2008,10,26,10,30,4.50
2008,10,26,10,31,4.60
2008,10,26,10,32,4.60
2008,10,26,10,33,4.60
2008,10,26,10,34,4.70
2008,10,26,10,35,4.70
2008,10,26,10,36,4.80
2008,10,26,10,37,4.80
2008,10,26,10,38,4.80
2008,10,26,10,39,4.90
2008,10,26,10,40,4.90
2008,10,26,10,41,5.00
2008,10,26,10,42,5.10
2008,10,26,10,43,5.10
2008,10,26,10,44,5.20
2008,10,26,10,45,5.20
2008,10,26,10,46,5.20
2008,10,26,10,47,5.30
2008,10,26,10,48,5.30
2008,10,26,10,49,5.40
2008,10,26,10,50,5.40
2008,10,26,10,51,5.50
2008,10,26,10,52,5.60
2008,10,26,10,53,5.70
2008,10,26,10,54,5.70
2008,10,26,10,55,5.80
2008,10,26,10,56,5.90
2008,10,26,10,57,5.90
2008,10,26,10,58,6.00
2008,10,26,10,59,6.10
2008,10,26,11,00,6.10
2008,10,26,11,01,6.20
2008,10,26,11,02,6.30
2008,10,26,11,03,6.30
2008,10,26,11,04,6.40
2008,10,26,11,05,6.50
2008,10,26,11,06,6.60
2008,10,26,11,07,6.60
2008,10,26,11,08,6.70
2008,10,26,11,09,6.80
2008,10,26,11,10,6.90
2008,10,26,11,11,7.00
2008,10,26,11,12,7.10
2008,10,26,11,13,7.20
2008,10,26,11,14,7.20
2008,10,26,11,15,7.30
2008,10,26,11,16,7.30
2008,10,26,11,17,7.40
2008,10,26,11,18,7.50
2008,10,26,11,19,7.50
2008,10,26,11,20,7.60
2008,10,26,11,21,7.70
2008,10,26,11,22,7.80
2008,10,26,11,23,7.80
2008,10,26,11,24,7.90
2008,10,26,11,25,8.00
2008,10,26,11,26,8.10
2008,10,26,11,27,8.10
2008,10,26,11,28,8.20
2008,10,26,11,29,8.30
2008,10,26,11,30,8.30
2008,10,26,11,31,8.40
2008,10,26,11,32,8.40
2008,10,26,11,33,8.40
2008,10,26,11,34,8.50
2008,10,26,11,35,8.60
2008,10,26,11,36,8.60
2008,10,26,11,37,8.70
2008,10,26,11,38,8.70
2008,10,26,11,39,8.80
2008,10,26,11,40,8.80
2008,10,26,11,41,8.80
2008,10,26,11,42,8.90
2008,10,26,11,43,8.90
2008,10,26,11,44,8.90
2008,10,26,11,45,8.90
2008,10,26,11,46,9.00
2008,10,26,11,47,9.00
2008,10,26,11,48,9.10
2008,10,26,11,49,9.20
2008,10,26,11,50,9.20
2008,10,26,11,51,9.20
2008,10,26,11,52,9.30
2008,10,26,11,53,9.30
2008,10,26,11,54,9.30
2008,10,26,11,55,9.30
2008,10,26,11,56,9.30
2008,10,26,11,57,9.30
2008,10,26,11,58,9.30
2008,10,26,11,59,9.30
2008,10,26,12,00,9.40
2008,10,26,12,01,9.40
2008,10,26,12,02,9.40
2008,10,26,12,03,9.40
2008,10,26,12,04,9.40
2008,10,26,12,05,9.50
2008,10,26,12,06,9.60
2008,10,26,12,07,9.60
2008,10,26,12,08,9.60
2008,10,26,12,09,9.60
2008,10,26,12,10,9.60
2008,10,26,12,11,9.60
2008,10,26,12,12,9.60
2008,10,26,12,13,9.60
2008,10,26,12,14,9.70
2008,10,26,12,15,9.70
2008,10,26,12,16,9.70
2008,10,26,12,17,9.70
2008,10,26,12,18,9.70
2008,10,26,12,19,9.70
2008,10,26,12,20,9.70
2008,10,26,12,21,9.70
2008,10,26,12,22,9.70
2008,10,26,12,23,9.70
2008,10,26,12,24,9.70
2008,10,26,12,25,9.70
2008,10,26,12,26,9.70
2008,10,26,12,27,9.70
2008,10,26,12,28,9.70
2008,10,26,12,29,9.80
2008,10,26,12,30,9.80
2008,10,26,12,31,9.80
2008,10,26,12,32,9.80
2008,10,26,12,33,9.80
2008,10,26,12,34,9.80
2008,10,26,12,35,9.80
2008,10,26,12,36,9.80
2008,10,26,12,37,9.90
2008,10,26,12,38,9.90
2008,10,26,12,39,9.90
2008,10,26,12,40,9.90
2008,10,26,12,41,10.00
2008,10,26,12,42,10.00
2008,10,26,12,43,10.10
2008,10,26,12,44,10.10
2008,10,26,12,45,10.20
2008,10,26,12,46,10.20
2008,10,26,12,47,10.30
2008,10,26,12,48,10.30
2008,10,26,12,49,10.40
2008,10,26,12,50,10.40
2008,10,26,12,51,10.50
2008,10,26,12,52,10.50
2008,10,26,12,53,10.50
2008,10,26,12,54,10.50
2008,10,26,12,55,10.50
2008,10,26,12,56,10.50
2008,10,26,12,57,10.60
2008,10,26,12,58,10.70
2008,10,26,12,59,10.70
2008,10,26,13,00,10.80
2008,10,26,13,01,10.80
2008,10,26,13,02,10.90
2008,10,26,13,03,10.90
2008,10,26,13,04,10.90
2008,10,26,13,05,10.90
2008,10,26,13,06,10.90
2008,10,26,13,07,10.90
2008,10,26,13,08,10.90
2008,10,26,13,09,10.90
2008,10,26,13,10,10.90
2008,10,26,13,11,10.90
2008,10,26,13,12,10.90
2008,10,26,13,13,11.00
2008,10,26,13,14,11.00
2008,10,26,13,15,11.10
2008,10,26,13,16,11.10
2008,10,26,13,17,11.20
2008,10,26,13,18,11.30
2008,10,26,13,19,11.30
2008,10,26,13,20,11.30
2008,10,26,13,21,11.30
2008,10,26,13,22,11.30
2008,10,26,13,23,11.30
2008,10,26,13,24,11.40
2008,10,26,13,25,11.40
2008,10,26,13,26,11.50
2008,10,26,13,27,11.60
2008,10,26,13,28,11.60
2008,10,26,13,29,11.60
2008,10,26,13,30,11.60
2008,10,26,13,31,11.60
2008,10,26,13,32,11.50
2008,10,26,13,33,11.60
2008,10,26,13,34,11.60
2008,10,26,13,35,11.60
2008,10,26,13,36,11.60
2008,10,26,13,37,11.60
2008,10,26,13,38,11.60
2008,10,26,13,39,11.60
2008,10,26,13,40,11.70
2008,10,26,13,41,11.70
2008,10,26,13,42,11.70
2008,10,26,13,43,11.70
2008,10,26,13,44,11.70
2008,10,26,13,45,11.70
2008,10,26,13,46,11.70
2008,10,26,13,47,11.70
2008,10,26,13,48,11.70
2008,10,26,13,49,11.70
2008,10,26,13,50,11.70
2008,10,26,13,51,11.80
2008,10,26,13,52,11.80
2008,10,26,13,53,11.90
2008,10,26,13,54,11.90
2008,10,26,13,55,11.90
2008,10,26,13,56,11.80
2008,10,26,13,57,11.80
2008,10,26,13,58,11.90
2008,10,26,13,59,11.90
2008,10,26,14,00,12.00
2008,10,26,14,01,12.00
2008,10,26,14,02,12.10
2008,10,26,14,03,12.10
2008,10,26,14,04,12.10
2008,10,26,14,05,12.10
2008,10,26,14,06,12.10
2008,10,26,14,07,12.20
2008,10,26,14,08,12.20
2008,10,26,14,09,12.30
2008,10,26,14,10,12.30
2008,10,26,14,11,12.30
2008,10,26,14,12,12.20
2008,10,26,14,13,12.20
2008,10,26,14,14,12.20
2008,10,26,14,15,12.20
2008,10,26,14,16,12.20
2008,10,26,14,17,12.10
2008,10,26,14,18,12.10
2008,10,26,14,19,12.10
2008,10,26,14,20,12.10
2008,10,26,14,21,12.10
2008,10,26,14,22,12.20
2008,10,26,14,23,12.20
2008,10,26,14,24,12.30
2008,10,26,14,25,12.40
2008,10,26,14,26,12.40
2008,10,26,14,27,12.50
2008,10,26,14,28,12.60
2008,10,26,14,29,12.60
2008,10,26,14,30,12.60
2008,10,26,14,31,12.50
2008,10,26,14,32,12.50
2008,10,26,14,33,12.40
2008,10,26,14,34,12.30
2008,10,26,14,35,12.30
2008,10,26,14,36,12.20
2008,10,26,14,37,12.20
2008,10,26,14,38,12.10
2008,10,26,14,39,12.10
2008,10,26,14,40,12.10
2008,10,26,14,41,12.10
2008,10,26,14,42,12.10
2008,10,26,14,43,12.20
2008,10,26,14,44,12.30
2008,10,26,14,45,12.40
2008,10,26,14,46,12.50
2008,10,26,14,47,12.50
2008,10,26,14,48,12.60
2008,10,26,14,49,12.70
2008,10,26,14,50,12.70
2008,10,26,14,51,12.80
2008,10,26,14,52,12.80
2008,10,26,14,53,12.90
2008,10,26,14,54,13.00
2008,10,26,14,55,13.10
2008,10,26,14,56,13.10
2008,10,26,14,57,13.10
2008,10,26,14,58,13.10
2008,10,26,14,59,13.00
2008,10,26,15,00,12.90
2008,10,26,15,01,12.80
2008,10,26,15,02,12.80
2008,10,26,15,03,12.80
2008,10,26,15,04,12.80
2008,10,26,15,05,12.80
2008,10,26,15,06,12.90
2008,10,26,15,07,13.00
2008,10,26,15,08,13.00
2008,10,26,15,09,13.10
2008,10,26,15,10,13.20
2008,10,26,15,11,13.20
2008,10,26,15,12,13.20
2008,10,26,15,13,13.30
2008,10,26,15,14,13.30
2008,10,26,15,15,13.30
2008,10,26,15,16,13.40
2008,10,26,15,17,13.40
2008,10,26,15,18,13.40
2008,10,26,15,19,13.30
2008,10,26,15,20,13.20
2008,10,26,15,21,13.10
2008,10,26,15,22,13.00
2008,10,26,15,23,12.80
2008,10,26,15,24,12.80
2008,10,26,15,25,12.70
2008,10,26,15,26,12.60
2008,10,26,15,27,12.60
2008,10,26,15,28,12.50
2008,10,26,15,29,12.50
2008,10,26,15,30,12.40
2008,10,26,15,31,12.50
2008,10,26,15,32,12.50
2008,10,26,15,33,12.60
2008,10,26,15,34,12.60
2008,10,26,15,35,12.70
2008,10,26,15,36,12.70
2008,10,26,15,37,12.80
2008,10,26,15,38,12.80
2008,10,26,15,39,12.80
2008,10,26,15,40,12.80
2008,10,26,15,41,12.80
2008,10,26,15,42,12.80
2008,10,26,15,43,12.70
2008,10,26,15,44,12.60
2008,10,26,15,45,12.60
2008,10,26,15,46,12.60
2008,10,26,15,47,12.60
2008,10,26,15,48,12.60
2008,10,26,15,49,12.60
2008,10,26,15,50,12.70
2008,10,26,15,51,12.70
2008,10,26,15,52,12.70
2008,10,26,15,53,12.70
2008,10,26,15,54,12.70
2008,10,26,15,55,12.70
2008,10,26,15,56,12.70
2008,10,26,15,57,12.70
2008,10,26,15,58,12.80
2008,10,26,15,59,12.80
2008,10,26,16,00,12.80
2008,10,26,16,01,12.80
2008,10,26,16,02,12.80
2008,10,26,16,03,12.90
2008,10,26,16,04,13.00
2008,10,26,16,05,13.00
2008,10,26,16,06,13.10
2008,10,26,16,07,13.20
2008,10,26,16,08,13.20
2008,10,26,16,09,13.30
2008,10,26,16,10,13.30
2008,10,26,16,11,13.30
2008,10,26,16,12,13.30
2008,10,26,16,13,13.20
2008,10,26,16,14,13.20
2008,10,26,16,15,13.20
2008,10,26,16,16,13.20
2008,10,26,16,17,13.20
2008,10,26,16,18,13.10
2008,10,26,16,19,13.10
2008,10,26,16,20,13.00
2008,10,26,16,21,12.90
2008,10,26,16,22,12.80
2008,10,26,16,23,12.70
2008,10,26,16,24,12.70
2008,10,26,16,25,12.60
2008,10,26,16,26,12.60
2008,10,26,16,27,12.60
2008,10,26,16,28,12.60
2008,10,26,16,29,12.70
2008,10,26,16,30,12.70
2008,10,26,16,31,12.70
2008,10,26,16,32,12.70
2008,10,26,16,33,12.70
2008,10,26,16,34,12.70
2008,10,26,16,35,12.60
2008,10,26,16,36,12.50
2008,10,26,16,37,12.40
2008,10,26,16,38,12.30
2008,10,26,16,39,12.30
2008,10,26,16,40,12.30
2008,10,26,16,41,12.30
2008,10,26,16,42,12.40
2008,10,26,16,43,12.40
2008,10,26,16,44,12.40
2008,10,26,16,45,12.50
2008,10,26,16,46,12.50
2008,10,26,16,47,12.50
2008,10,26,16,48,12.50
2008,10,26,16,49,12.50
2008,10,26,16,50,12.40
2008,10,26,16,51,12.30
2008,10,26,16,52,12.30
2008,10,26,16,53,12.20
2008,10,26,16,54,12.20
2008,10,26,16,55,12.20
2008,10,26,16,56,12.20
2008,10,26,16,57,12.20
2008,10,26,16,58,12.20
2008,10,26,16,59,12.20
2008,10,26,17,00,12.20
2008,10,26,17,01,12.20
2008,10,26,17,02,12.20
2008,10,26,17,03,12.20
2008,10,26,17,04,12.20
2008,10,26,17,05,12.20
2008,10,26,17,06,12.30
2008,10,26,17,07,12.30
2008,10,26,17,08,12.30
2008,10,26,17,09,12.40
2008,10,26,17,10,12.40
2008,10,26,17,11,12.40
2008,10,26,17,12,12.40
2008,10,26,17,13,12.40
2008,10,26,17,14,12.40
2008,10,26,17,15,12.40
2008,10,26,17,16,12.40
2008,10,26,17,17,12.40
2008,10,26,17,18,12.40
2008,10,26,17,19,12.40
2008,10,26,17,20,12.50
2008,10,26,17,21,12.50
2008,10,26,17,22,12.50
2008,10,26,17,23,12.50
2008,10,26,17,24,12.50
2008,10,26,17,25,12.40
2008,10,26,17,26,12.40
2008,10,26,17,27,12.40
2008,10,26,17,28,12.40
2008,10,26,17,29,12.30
2008,10,26,17,30,12.30
2008,10,26,17,31,12.30
2008,10,26,17,32,12.20
2008,10,26,17,33,12.20
2008,10,26,17,34,12.10
2008,10,26,17,35,12.10
2008,10,26,17,36,12.00
2008,10,26,17,37,12.00
2008,10,26,17,38,11.90
2008,10,26,17,39,11.80
2008,10,26,17,40,11.80
2008,10,26,17,41,11.70
2008,10,26,17,42,11.60
2008,10,26,17,43,11.50
2008,10,26,17,44,11.50
2008,10,26,17,45,11.40
2008,10,26,17,46,11.30
2008,10,26,17,47,11.20
2008,10,26,17,48,11.20
2008,10,26,17,49,11.10
2008,10,26,17,50,11.00
2008,10,26,17,51,10.90
2008,10,26,17,52,10.80
2008,10,26,17,53,10.70
2008,10,26,17,54,10.70
2008,10,26,17,55,10.60
2008,10,26,17,56,10.60
2008,10,26,17,57,10.50
2008,10,26,17,58,10.40
2008,10,26,17,59,10.40
2008,10,26,18,00,10.30
2008,10,26,18,01,10.20
2008,10,26,18,02,10.20
2008,10,26,18,03,10.10
2008,10,26,18,04,10.00
2008,10,26,18,05,10.00
2008,10,26,18,06,9.90
2008,10,26,18,07,9.80
2008,10,26,18,08,9.80
2008,10,26,18,09,9.70
2008,10,26,18,10,9.60
2008,10,26,18,11,9.60
2008,10,26,18,12,9.50
2008,10,26,18,13,9.50
2008,10,26,18,14,9.40
2008,10,26,18,15,9.40
2008,10,26,18,16,9.30
2008,10,26,18,17,9.20
2008,10,26,18,18,9.10
2008,10,26,18,19,9.10
2008,10,26,18,20,9.00
2008,10,26,18,21,9.00
2008,10,26,18,22,8.90
2008,10,26,18,23,8.90
2008,10,26,18,24,8.80
2008,10,26,18,25,8.80
2008,10,26,18,26,8.80
2008,10,26,18,27,8.70
2008,10,26,18,28,8.70
2008,10,26,18,29,8.60
2008,10,26,18,30,8.60
2008,10,26,18,31,8.50
2008,10,26,18,32,8.50
2008,10,26,18,33,8.40
2008,10,26,18,34,8.40
2008,10,26,18,35,8.30
2008,10,26,18,36,8.30
2008,10,26,18,37,8.30
2008,10,26,18,38,8.20
2008,10,26,18,39,8.20
2008,10,26,18,40,8.10
2008,10,26,18,41,8.10
2008,10,26,18,42,8.00
2008,10,26,18,43,7.90
2008,10,26,18,44,7.80
2008,10,26,18,45,7.80
2008,10,26,18,46,7.80
2008,10,26,18,47,7.80
2008,10,26,18,48,7.70
2008,10,26,18,49,7.60
2008,10,26,18,50,7.60
2008,10,26,18,51,7.50
2008,10,26,18,52,7.50
2008,10,26,18,53,7.50